This is the latest recevied weather packets stored in our database for station/object KF6FPU-15. If no packets are shown the sender has not sent any weather packets the latest 10 day(s).
| Time | Temp. | Humidity | Pressure | Rain* | Wind** | Luminosity | Snow |
|---|---|---|---|---|---|---|---|
| 1777363754 | 26.67° C | 19% | 1018.9 hPa | - | - | - | - |
| 1777362554 | 26.11° C | 19% | 1018.9 hPa | - | - | - | - |
| 1777361954 | 25.56° C | 19% | 1018.8 hPa | - | - | - | - |
| 1777361354 | 26.11° C | 19% | 1018.8 hPa | - | - | - | - |
| 1777360754 | 26.67° C | 19% | 1018.7 hPa | - | - | - | - |
| 1777360154 | 26.67° C | 19% | 1018.7 hPa | - | - | - | - |
| 1777359554 | 26.11° C | 19% | 1018.6 hPa | - | - | - | - |
| 1777358954 | 25.56° C | 19% | 1018.6 hPa | - | - | - | - |
| 1777358354 | 26.11° C | 19% | 1018.5 hPa | - | - | - | - |
| 1777357754 | 26.11° C | 19% | 1018.6 hPa | - | - | - | - |
| 1777357154 | 26.11° C | 19% | 1018.6 hPa | - | - | - | - |
| 1777355954 | 26.11° C | 19% | 1018.5 hPa | - | - | - | - |
| 1777355354 | 26.67° C | 19% | 1018.5 hPa | - | - | - | - |
| 1777354754 | 26.67° C | 18% | 1018.6 hPa | - | - | - | - |
| 1777354154 | 26.67° C | 18% | 1018.5 hPa | - | - | - | - |
| 1777353554 | 26.11° C | 19% | 1018.5 hPa | - | - | - | - |
| 1777352954 | 26.67° C | 18% | 1018.4 hPa | - | - | - | - |
| 1777352354 | 26.67° C | 18% | 1018.4 hPa | - | - | - | - |
| 1777351754 | 26.67° C | 18% | 1018.3 hPa | - | - | - | - |
| 1777351154 | 27.22° C | 19% | 1018.3 hPa | - | - | - | - |
| 1777350554 | 27.78° C | 19% | 1018.2 hPa | - | - | - | - |
| 1777349354 | 27.78° C | 19% | 1018 hPa | - | - | - | - |
| 1777348754 | 26.67° C | 18% | 1017.9 hPa | - | - | - | - |
| 1777348154 | 27.78° C | 19% | 1017.7 hPa | - | - | - | - |
| 1777347554 | 26.67° C | 18% | 1017.7 hPa | - | - | - | - |
* Rain since midnight (hover to see other rain measurements)
** Current wind speed in m/s (hover to see current wind gust speed)